Weather History for Farmington, MO

Change the Weather History Date:

Sunday, July 7, 2013

  Actual Average Record
Temperature  
Mean Temperature 76 °F -  
Max Temperature 89 °F 84 °F 104 °F (2012)
Min Temperature 62 °F 64 °F 53 °F (2006)
Cooling Degree Days 10    
Growing Degree Days 26 (Base 50)    
Moisture  
Dew Point 65 °F    
Average Humidity 71    
Maximum Humidity 94    
Minimum Humidity 38    
Precipitation  
Precipitation 0.00 in - - ()
Sea Level Pressure  
Sea Level Pressure 30.08 in    
Wind  
Wind Speed 5 mph (South)    
Max Wind Speed 10 mph    
Max Gust Speed -    
Visibility 10 miles    
Events      
Averages and records for this station are not official NWS values.
T = Trace of Precipitation, MM = Missing Value Source: NWS Daily Summary

Daily Weather History Graph

Daily Weather History Graph

Search for Another Location

Airport:

Trip Planner

Search our weather history database for the weather conditions in past years. The results will help you decide how hot, cold, wet, or windy it might be!

Date:

Astronomy

Jul. 07, 2013 Rise Set
Actual Time 5:46 AM CDT 8:26 PM CDT
Civil Twilight 5:15 AM CDT 8:57 PM CDT
Nautical Twilight 4:37 AM CDT 9:35 PM CDT
Astronomical Twilight 3:54 AM CDT 10:18 PM CDT
Moon 5:21 AM CDT (7/7) 7:51 PM CDT (7/7)
Length of Visible Light 15h 41m
Length of Day
14h 39m
Waning Crescent, 0% of the Moon is Illuminated
Jul 7
Waning Crescent
Jul 8
New
Jul 15
First Quarter
Jul 22
Full
Jul 29
Last Quarter

Hourly Weather History & Observations

Time (CDT) Temp. Heat Index Dew Point Humidity Pressure Visibility Wind Dir Wind Speed Gust Speed Precip Events Conditions
12:15 AM 66.2 °F - 62.6 °F 88% 30.08 in 10.0 mi SE 3.5 mph - N/A   Clear
12:35 AM 66.2 °F - 62.6 °F 88% 30.07 in 10.0 mi South 3.5 mph - N/A   Clear
12:55 AM 66.2 °F - 62.6 °F 88% 30.08 in 10.0 mi SE 3.5 mph - N/A   Clear
1:15 AM 66.2 °F - 62.6 °F 88% 30.07 in 10.0 mi SSE 5.8 mph - N/A   Clear
1:35 AM 66.2 °F - 62.6 °F 88% 30.07 in 10.0 mi SSE 4.6 mph - N/A   Clear
1:55 AM 66.2 °F - 62.6 °F 88% 30.07 in 10.0 mi Calm Calm - N/A   Clear
2:15 AM 64.4 °F - 62.6 °F 94% 30.06 in 10.0 mi Calm Calm - N/A   Clear
2:35 AM 64.4 °F - 60.8 °F 88% 30.06 in 10.0 mi Calm Calm - N/A   Clear
2:55 AM 64.4 °F - 60.8 °F 88% 30.06 in 10.0 mi Calm Calm - N/A   Clear
3:15 AM 64.4 °F - 60.8 °F 88% 30.06 in 10.0 mi Calm Calm - N/A   Clear
3:35 AM 64.4 °F - 60.8 °F 88% 30.07 in 10.0 mi South 6.9 mph - N/A   Clear
3:55 AM 64.4 °F - 60.8 °F 88% 30.07 in 10.0 mi SSW 4.6 mph - N/A   Clear
4:15 AM 64.4 °F - 60.8 °F 88% 30.07 in 10.0 mi South 4.6 mph - N/A   Clear
4:35 AM 64.4 °F - 60.8 °F 88% 30.07 in 10.0 mi Calm Calm - N/A   Clear
4:55 AM 64.4 °F - 60.8 °F 88% 30.06 in 10.0 mi Calm Calm - N/A   Clear
5:15 AM 64.4 °F - 60.8 °F 88% 30.06 in 10.0 mi SSE 3.5 mph - N/A   Clear
5:35 AM 62.6 °F - 60.8 °F 94% 30.07 in 10.0 mi SSE 5.8 mph - N/A   Clear
5:55 AM 62.6 °F - 60.8 °F 94% 30.07 in 10.0 mi South 3.5 mph - N/A   Clear
6:15 AM 62.6 °F - 60.8 °F 94% 30.08 in 10.0 mi SSE 4.6 mph - N/A   Clear
6:35 AM 62.6 °F - 60.8 °F 94% 30.09 in 10.0 mi South 3.5 mph - N/A   Clear
6:55 AM 64.4 °F - 62.6 °F 94% 30.09 in 10.0 mi Calm Calm - N/A   Clear
7:15 AM 66.2 °F - 62.6 °F 88% 30.10 in 10.0 mi South 4.6 mph - N/A   Clear
7:35 AM 66.2 °F - 62.6 °F 88% 30.10 in 10.0 mi South 4.6 mph - N/A   Clear
7:55 AM 68.0 °F - 64.4 °F 88% 30.10 in 10.0 mi South 6.9 mph - N/A   Clear
8:15 AM 69.8 °F - 66.2 °F 88% 30.11 in 10.0 mi South 6.9 mph - N/A   Clear
8:35 AM 71.6 °F - 66.2 °F 83% 30.11 in 10.0 mi South 6.9 mph - N/A   Clear
8:55 AM 73.4 °F - 66.2 °F 78% 30.11 in 10.0 mi South 5.8 mph - N/A   Clear
9:15 AM 75.2 °F - 69.8 °F 83% 30.11 in 10.0 mi South 5.8 mph - N/A   Clear
9:35 AM 77.0 °F - 69.8 °F 78% 30.11 in 10.0 mi SSW 8.1 mph - N/A   Clear
9:55 AM 78.8 °F - 69.8 °F 74% 30.10 in 10.0 mi SW 6.9 mph - N/A   Clear
10:15 AM 80.6 °F 83.9 °F 69.8 °F 70% 30.11 in 10.0 mi WSW 8.1 mph - N/A   Clear
10:35 AM 80.6 °F 83.9 °F 69.8 °F 70% 30.11 in 10.0 mi SSW 8.1 mph - N/A   Clear
10:55 AM 82.4 °F 86.3 °F 69.8 °F 66% 30.11 in 10.0 mi SW 6.9 mph - N/A   Clear
11:15 AM 82.4 °F 86.3 °F 69.8 °F 66% 30.11 in 10.0 mi SW 6.9 mph - N/A   Clear
11:35 AM 84.2 °F 87.3 °F 68.0 °F 58% 30.10 in 10.0 mi South 8.1 mph - N/A   Clear
11:55 AM 84.2 °F 88.4 °F 69.8 °F 62% 30.10 in 10.0 mi SW 8.1 mph - N/A   Clear
12:15 PM 84.2 °F 88.4 °F 69.8 °F 62% 30.10 in 10.0 mi SSW 6.9 mph - N/A   Clear
12:35 PM 86.0 °F 89.4 °F 68.0 °F 55% 30.10 in 10.0 mi SSE 8.1 mph - N/A   Clear
12:55 PM 86.0 °F 89.4 °F 68.0 °F 55% 30.09 in 10.0 mi SSW 6.9 mph - N/A   Clear
1:15 PM 87.8 °F 90.4 °F 66.2 °F 49% 30.09 in 10.0 mi SSW 10.4 mph - N/A   Clear
1:35 PM 87.8 °F 90.4 °F 66.2 °F 49% 30.09 in 10.0 mi SSW 9.2 mph - N/A   Clear
1:55 PM 87.8 °F 90.4 °F 66.2 °F 49% 30.08 in 10.0 mi South 4.6 mph - N/A   Scattered Clouds
2:15 PM 87.8 °F 90.4 °F 66.2 °F 49% 30.08 in 10.0 mi South 6.9 mph - N/A   Partly Cloudy
2:35 PM 89.6 °F 91.1 °F 64.4 °F 43% 30.08 in 10.0 mi SSE 9.2 mph - N/A   Clear
2:55 PM 89.6 °F 92.2 °F 66.2 °F 46% 30.08 in 10.0 mi SSW 8.1 mph - N/A   Clear
3:15 PM 89.6 °F 91.1 °F 64.4 °F 43% 30.08 in 3.0 mi SSE 6.9 mph - N/A   Clear
3:35 PM 89.6 °F 89.5 °F 60.8 °F 38% 30.07 in 10.0 mi South 5.8 mph - N/A   Clear
3:55 PM 89.6 °F 91.1 °F 64.4 °F 43% 30.06 in 10.0 mi SSE 6.9 mph - N/A   Clear
4:15 PM 89.6 °F 91.1 °F 64.4 °F 43% 30.06 in 10.0 mi South 9.2 mph - N/A   Clear
4:35 PM 89.6 °F 90.1 °F 62.6 °F 40% 30.06 in 10.0 mi South 8.1 mph - N/A   Clear
4:55 PM 89.6 °F 90.1 °F 62.6 °F 40% 30.06 in 10.0 mi South 5.8 mph - N/A   Clear
5:15 PM 87.8 °F 90.4 °F 66.2 °F 49% 30.06 in 10.0 mi SSE 9.2 mph - N/A   Clear
5:35 PM 87.8 °F 91.4 °F 68.0 °F 52% 30.06 in 10.0 mi South 10.4 mph - N/A   Partly Cloudy
5:55 PM 87.8 °F 91.4 °F 68.0 °F 52% 30.05 in 10.0 mi SSE 9.2 mph - N/A   Partly Cloudy
6:15 PM 86.0 °F 88.2 °F 66.2 °F 51% 30.05 in 10.0 mi South 9.2 mph - N/A   Clear
6:35 PM 86.0 °F 89.4 °F 68.0 °F 55% 30.05 in 10.0 mi South 9.2 mph - N/A   Clear
6:55 PM 84.2 °F 87.3 °F 68.0 °F 58% 30.06 in 10.0 mi South 9.2 mph - N/A   Clear
7:15 PM 84.2 °F 88.4 °F 69.8 °F 62% 30.06 in 10.0 mi South 6.9 mph - N/A   Clear
7:35 PM 82.4 °F 86.3 °F 69.8 °F 66% 30.06 in 10.0 mi South 8.1 mph - N/A   Clear
7:55 PM 82.4 °F 85.4 °F 68.0 °F 62% 30.06 in 10.0 mi South 5.8 mph - N/A   Clear
8:15 PM 80.6 °F 83.2 °F 68.0 °F 65% 30.07 in 10.0 mi South 3.5 mph - N/A   Clear
8:35 PM 78.8 °F - 68.0 °F 69% 30.07 in 10.0 mi South 4.6 mph - N/A   Clear
8:55 PM 78.8 °F - 68.0 °F 69% 30.08 in 10.0 mi South 3.5 mph - N/A   Clear
9:15 PM 77.0 °F - 68.0 °F 74% 30.09 in 10.0 mi SSE 4.6 mph - N/A   Clear
9:35 PM 75.2 °F - 68.0 °F 78% 30.09 in 10.0 mi Calm Calm - N/A   Clear
9:55 PM 75.2 °F - 68.0 °F 78% 30.10 in 10.0 mi Calm Calm - N/A   Clear
10:15 PM 75.2 °F - 66.2 °F 73% 30.10 in 10.0 mi SSE 3.5 mph - N/A   Clear
10:35 PM 75.2 °F - 66.2 °F 73% 30.10 in 10.0 mi SSE 3.5 mph - N/A   Clear
10:55 PM 73.4 °F - 66.2 °F 78% 30.10 in 10.0 mi SSE 4.6 mph - N/A   Clear
11:15 PM 73.4 °F - 64.4 °F 73% 30.11 in 10.0 mi Calm Calm - N/A   Clear
11:35 PM 73.4 °F - 64.4 °F 73% 30.11 in 9.0 mi South 3.5 mph - N/A   Clear
11:55 PM 73.4 °F - 66.2 °F 78% 30.11 in 10.0 mi South 4.6 mph - N/A   Clear